STARLINK-11734 [DTC]

Last updated on Thu Jul 03 2025 00:02:06 GMT+0000 (Coordinated Universal Time)

1 64329U 25124N 25183.58335648 -.00969966 00000+0 -54496-2 0 9995 2 64329 43.0033 96.8307 0001828 260.7781 278.5717 15.80799924 4535
UTC large
Height (km)
Speed (km/s)
/
Latitude / Longitude
Inclination (degrees)
Orbital Period (minutes)
Azimuth
Elevation
Range (km)
Doppler Factor

Next 0 passes for location: London (51.5072 / 0.1276)

Sorry there are no passes over London.